Weather History for Benton Harbor, MI

Change the Weather History Date:

Saturday, October 13, 2012

  Actual Average Record
Temperature  
Mean Temperature 52 °F -  
Max Temperature 66 °F 62 °F 85 °F (1975)
Min Temperature 39 °F 41 °F 20 °F (1993)
Degree Days  
Heating Degree Days 14    
Growing Degree Days 2 (Base 50)    
Moisture  
Dew Point 50 °F    
Average Humidity 88    
Maximum Humidity 100    
Minimum Humidity 60    
Precipitation  
Precipitation 0.36 in - - ()
Sea Level Pressure  
Sea Level Pressure 30.00 in    
Wind  
Wind Speed 8 mph (SSE)    
Max Wind Speed 12 mph    
Max Gust Speed 20 mph    
Visibility 6 miles    
Events Rain , Thunderstorm    
Averages and records for this station are not official NWS values.
T = Trace of Precipitation, MM = Missing Value Source: NWS Daily Summary

Daily Weather History Graph

Daily Weather History Graph

Search for Another Location

Airport:

Trip Planner

Search our weather history database for the weather conditions in past years. The results will help you decide how hot, cold, wet, or windy it might be!

Date:

Astronomy

Oct. 13, 2012 Rise Set
Actual Time 7:56 AM EDT 7:06 PM EDT
Civil Twilight 7:28 AM EDT 7:34 PM EDT
Nautical Twilight 6:56 AM EDT 8:06 PM EDT
Astronomical Twilight 6:23 AM EDT 8:39 PM EDT
Moon 5:44 AM EDT (10/13) 5:50 PM EDT (10/13)
Length of Visible Light 12h 06m
Length of Day
11h 09m
Waning Crescent, 5% of the Moon is Illuminated
Oct 13
Waning Crescent
Oct 15
New
Oct 21
First Quarter
Oct 29
Full
Nov 6
Last Quarter

Hourly Weather History & Observations

Time (EDT) Temp. Windchill Dew Point Humidity Pressure Visibility Wind Dir Wind Speed Gust Speed Precip Events Conditions
12:53 AM 39.0 °F 35.7 °F 28.0 °F 65% 30.32 in 10.0 mi ESE 4.6 mph - N/A   Clear
1:53 AM 39.0 °F 34.0 °F 28.9 °F 67% 30.30 in 10.0 mi SE 6.9 mph - N/A   Clear
2:53 AM 39.9 °F 34.5 °F 30.0 °F 68% 30.29 in 10.0 mi SE 8.1 mph - N/A   Clear
3:53 AM 41.0 °F 35.8 °F 32.0 °F 70% 30.27 in 10.0 mi SE 8.1 mph - N/A   Clear
4:53 AM 42.1 °F 36.1 °F 32.0 °F 67% 30.23 in 10.0 mi SE 10.4 mph - N/A   Clear
5:53 AM 43.0 °F 36.8 °F 32.0 °F 65% 30.19 in 10.0 mi SE 11.5 mph - N/A   Mostly Cloudy
6:53 AM 45.0 °F 39.7 °F 32.0 °F 60% 30.18 in 10.0 mi SE 10.4 mph 19.6 mph N/A   Overcast
7:53 AM 43.0 °F 37.2 °F 36.0 °F 76% 30.20 in 10.0 mi SE 10.4 mph - 0.01 in Rain Light Rain
8:53 AM 43.0 °F 37.7 °F 39.0 °F 86% 30.17 in 5.0 mi ESE 9.2 mph - 0.02 in Rain Light Rain
9:53 AM 44.1 °F 40.1 °F 39.9 °F 85% 30.15 in 10.0 mi East 6.9 mph - 0.01 in   Overcast
11:53 AM 48.0 °F - 42.1 °F 80% 30.08 in 10.0 mi ESE 10.4 mph - N/A   Overcast
12:53 PM 48.9 °F - 44.1 °F 83% 30.04 in 10.0 mi SE 10.4 mph - 0.00 in Rain Light Rain
1:26 PM 50.0 °F - 44.6 °F 82% 30.01 in 7.0 mi SSE 9.2 mph - 0.01 in Rain Light Rain
1:53 PM 48.9 °F - 46.9 °F 93% 30.01 in 1.5 mi SSE 9.2 mph - 0.10 in Rain Rain
2:00 PM 48.2 °F - 46.4 °F 93% 30.00 in 1.5 mi SSE 10.4 mph - 0.05 in Rain Heavy Rain
2:11 PM 50.0 °F - 48.2 °F 94% 29.99 in 3.0 mi SSE 9.2 mph - 0.07 in Rain Light Rain
2:53 PM 52.0 °F - 51.1 °F 97% 29.96 in 3.0 mi SSE 10.4 mph 17.3 mph 0.10 in Rain Light Rain
3:11 PM 53.6 °F - 51.8 °F 94% 29.93 in 5.0 mi SSE 11.5 mph - 0.00 in Rain Light Rain
3:48 PM 53.6 °F - 53.6 °F 100% 29.92 in 6.0 mi South 11.5 mph 17.3 mph 0.01 in   Overcast
4:53 PM 55.9 °F - 55.0 °F 97% 29.90 in 6.0 mi SSE 9.2 mph - 0.01 in   Overcast
5:53 PM 57.0 °F - 55.9 °F 96% 29.88 in 2.0 mi SSE 5.8 mph - 0.03 in Rain Light Rain
6:07 PM 57.2 °F - 57.2 °F 100% 29.87 in 3.0 mi SSE 5.8 mph - 0.01 in Rain Light Rain
6:21 PM 57.2 °F - 57.2 °F 100% 29.87 in 2.5 mi South 3.5 mph - 0.01 in   Overcast
6:53 PM 59.0 °F - 59.0 °F 100% 29.86 in 3.0 mi SSW 3.5 mph - 0.01 in Rain Light Rain
7:30 PM 62.6 °F - 60.8 °F 94% 29.85 in 5.0 mi SSW 9.2 mph - 0.02 in Rain Light Rain
8:02 PM 62.6 °F - 62.6 °F 100% 29.85 in 2.5 mi SSW 10.4 mph 17.3 mph 0.02 in Rain , Thunderstorm Thunderstorms and Rain
8:12 PM 62.6 °F - 62.6 °F 100% 29.85 in 2.5 mi SSW 9.2 mph 18.4 mph 0.04 in Rain , Thunderstorm Light Thunderstorms and Rain
8:17 PM 62.6 °F - 62.6 °F 100% 29.86 in 3.0 mi SSW 9.2 mph - 0.05 in Rain Rain
8:24 PM 62.6 °F - 62.6 °F 100% 29.86 in 3.0 mi SSW 10.4 mph 18.4 mph 0.07 in Rain Rain
8:31 PM 64.4 °F - 62.6 °F 94% 29.86 in 4.0 mi SSW 10.4 mph - 0.07 in Rain Light Rain
8:53 PM 64.0 °F - 63.0 °F 96% 29.86 in 4.0 mi SSW 11.5 mph - 0.07 in   Overcast
9:41 PM 64.4 °F - 62.6 °F 94% 29.87 in 1.8 mi SW 9.2 mph 16.1 mph 0.06 in Rain Heavy Rain
9:50 PM 64.4 °F - 62.6 °F 94% 29.87 in 3.0 mi SSW 6.9 mph - 0.06 in Rain Light Rain
10:22 PM 64.4 °F - 62.6 °F 94% 29.86 in 4.0 mi SSW 8.1 mph - N/A   Overcast
10:53 PM 64.9 °F - 63.0 °F 93% 29.86 in 5.0 mi SSW 9.2 mph - N/A   Overcast
11:53 PM 66.0 °F - 63.0 °F 90% 29.83 in 6.0 mi SSW 10.4 mph 17.3 mph N/A   Overcast